This demonstration page uses our WeatherBlox Daily Observations layout. Learn more.

Left ArrowRight Arrow

Hourly Observations for September 7, 2020

Temp ( °F °C ) Dew Point ( °F °C ) Humidity (%) Winds ( mph kmh ) Pressure ( in mb ) Visibility ( mi km ) Precip ( " mm )
12:51 am 00:51 Clear 80 26.7 49 9.4 34 34 W 3 6 29.75 1007 10 16.0934 0 0
1:51 am 01:51 Clear 76 24.4 49 9.4 39 39 Calm 29.74 1007 10 16.0934 0 0
2:51 am 02:51 Clear 74 23.3 48 8.9 40 40 Calm 29.73 1007 10 16.0934 0 0
3:51 am 03:51 Clear 73 22.8 48 8.9 41 41 N 3 6 29.72 1007 10 16.0934 0 0
4:51 am 04:51 Clear 69 20.6 49 9.4 49 49 NE 5 7 29.73 1007 10 16.0934 0 0
5:51 am 05:51 Clear 70 21.1 49 9.4 47 47 Calm 29.74 1007 10 16.0934 0 0
6:51 am 06:51 Sunny 75 23.9 53 11.7 46 46 Calm 29.75 1007 10 16.0934 0 0
7:51 am 07:51 Sunny 80 26.7 53 11.7 39 39 Calm 29.73 1007 10 16.0934 0 0
8:51 am 08:51 Sunny 86 30 51 10.6 30 30 Calm 29.72 1007 10 16.0934 0 0
9:51 am 09:51 Sunny 93 33.9 49 9.4 22 22 Calm 29.7 1006 10 16.0934 0 0
10:51 am 10:51 Sunny 96 35.6 47 8.3 19 19 NW 8 13 29.67 1005 10 16.0934 0 0
11:51 am 11:51 Sunny 99 37.2 46 7.8 16 16 WNW 12 19 29.62 1003 10 16.0934 0 0
12:51 pm 12:51 Sunny 102 38.9 44 6.7 14 14 WNW 13 20 29.59 1002 10 16.0934 0 0
1:51 pm 13:51 Sunny 105 40.6 42 5.6 12 12 WNW 16 26 29.54 1001 10 16.0934 0 0
2:51 pm 14:51 Sunny 106 41.1 40 4.4 10 10 W 14 22 29.5 999 10 16.0934 0 0
3:51 pm 15:51 Sunny 107 41.7 38 3.3 9 9 NW 14 22 29.48 998 10 16.0934 0 0
4:51 pm 16:51 Sunny 105 40.6 41 5 11 11 WNW 21 33 29.47 998 10 16.0934 0 0
5:51 pm 17:51 Sunny 100 37.8 45 7.2 15 15 W 23 37 29.48 998 10 16.0934 0 0
6:51 pm 18:51 Clear 95 35 47 8.3 19 19 WNW 20 31 29.48 998 10 16.0934 0 0
7:51 pm 19:51 Clear 92 33.3 46 7.8 21 21 NW 17 28 29.5 999 10 16.0934 0 0
8:51 pm 20:51 Clear 91 32.8 45 7.2 20 20 NW 16 26 29.49 999 10 16.0934 0 0
9:51 pm 21:51 Clear 91 32.8 49 9.4 24 24 NW 20 31 29.48 998 10 16.0934 0 0
10:51 pm 22:51 Clear 88 31.1 49 9.4 26 26 NW 15 24 29.48 998 10 16.0934 0 0
11:51 pm 23:51 Clear 88 31.1 49 9.4 26 26 WNW 14 22 29.48 998 10 16.0934 0 0

Powered by AerisWeather